[[{"header":{"parameterUnit":"m.s-1","parameterCategory":1,"la1":30.2991,"la2":30.254,"lo1":-89.0895,"lo2":-89.0444,"dy":0.0017,"dx":0.0017,"nx":28,"ny":28,"refTime":"2023-10-08T09:00:00:Z","depth":0,"parameterNumber":2,"parameterNumberName":"U-component_of_WINDS"},"data":[0,0,0,0,0,0,0,0,0,0,0,0,0,0,0,0,0,0,0,0,0,0,0,0,0,0,0,0,0,0,0,0,0,0,0,0,0,0,0,0,0,0,0,0,0,0,0,0,0,0,0,0,0,0,0,0,0,0,2.2308,2.2309,0,2.2386,2.2387,2.2388,2.2367,2.2365,2.2364,2.2362,2.2441,2.2444,2.2448,0,0,0,0,0,0,0,0,0,0,0,0,0,2.2139,2.2142,2.2308,2.2309,2.231,2.2386,2.2387,2.2388,2.2367,2.2365,2.2363,2.2362,2.244,2.2444,2.2448,0,0,0,0,0,0,0,0,0,0,0,0,0,2.2214,2.2143,2.2308,2.2309,2.231,2.2385,2.2387,2.2388,2.2368,2.2365,2.2363,2.2361,2.2438,2.2443,2.2448,2.2527,0,0,2.2465,2.2467,0,0,0,0,0,0,0,0,2.221,2.222,2.2308,2.2309,2.231,2.2364,2.2356,2.2435,2.2368,2.2346,2.2362,2.236,2.2417,2.2424,2.2444,2.2531,2.2534,2.2465,2.2468,2.2471,2.2472,0,0,0,0,0,0,0,2.2204,2.2217,2.2339,2.2309,2.2311,2.2304,2.2312,2.237,2.2393,2.2347,2.2346,2.2356,2.2417,2.2439,2.2445,2.2536,2.2465,2.247,2.2473,2.2475,2.2687,2.2689,0,0,0,0,0,0,2.2199,2.2212,2.2336,2.2341,2.2253,2.2309,2.2318,2.2349,2.2393,2.2397,2.2358,2.2354,2.2431,2.2439,2.2448,2.2539,2.2471,2.2475,2.2479,2.2684,2.2687,2.269,0,0,0,0,0,0,2.2195,2.221,2.2333,2.2276,2.2292,2.2315,2.235,2.2352,2.2373,2.24,2.2404,2.2375,2.2429,2.244,2.2507,2.2542,2.2478,2.2483,2.2681,2.2685,2.2689,2.2725,0,0,0,0,0,0,2.219,2.2209,2.224,2.2277,2.2295,2.2392,2.2352,2.2355,2.2383,2.2379,2.2418,2.2422,2.2428,2.2499,2.2512,2.2548,2.2487,2.2678,2.2683,2.2687,2.2721,2.273,2.2737,0,0,0,0,0,2.2184,2.2248,2.2242,2.2257,2.2335,2.2394,2.2404,2.241,2.2386,2.2416,2.2433,2.2421,2.2537,2.2506,2.252,2.2559,2.2676,2.2682,2.2687,2.2717,2.2728,2.2737,0,0,0,0,0,0,2.2215,2.2253,2.2247,2.2325,2.2356,2.2391,2.243,2.2422,2.2461,2.2456,2.2462,2.247,2.2537,2.2555,2.252,2.2635,2.2602,2.2611,2.2621,2.2631,2.2639,2.2632,2.2491,0,0,0,0,0,2.2231,2.2277,2.2308,2.2373,2.239,2.2407,2.2433,2.2435,2.2468,2.2481,2.2503,2.2534,2.2577,2.2606,2.2647,2.2724,2.273,2.2757,2.2766,2.2772,2.2779,2.2816,2.2828,2.2708,2.2708,2.2708,0,0,2.2264,2.2291,2.232,2.238,2.2405,2.245,2.2418,2.2469,2.2502,2.2489,2.2551,2.2568,2.2604,2.2675,2.2707,2.2691,2.2813,2.2779,2.2784,2.2787,2.2823,2.2834,2.2844,2.2712,2.2711,2.2711,0,0,2.2347,2.2374,2.2429,2.2454,2.2491,2.2502,2.2515,2.255,2.256,2.2624,2.2613,2.2652,2.2728,2.2752,2.2774,2.2863,2.2852,2.2877,2.2918,2.2955,2.2964,2.2972,2.3,2.3011,2.2884,2.2884,2.2884,0,2.2383,2.2453,2.2459,2.2509,2.2534,2.2523,2.2578,2.2602,2.2651,2.2668,2.265,2.2741,2.2765,2.2839,2.286,2.288,2.2893,2.2871,2.2963,2.2971,2.2979,2.3005,2.3016,2.2886,2.2886,2.2886,2.2885,0,2.2493,2.2541,2.2582,2.2628,2.2658,2.2711,2.2722,2.2752,2.275,2.2762,2.2825,2.2852,2.2897,2.2915,2.2915,2.2989,2.2977,2.2961,2.2928,2.2992,2.3017,2.3028,2.289,2.2889,2.2888,2.2887,0,0,2.2598,2.2645,2.2659,2.2678,2.2717,2.2754,2.2804,2.2848,2.2871,2.2905,2.2946,2.3008,2.2992,2.3017,2.302,2.3052,2.3116,2.3032,2.3033,2.3043,2.3194,2.3203,2.3215,2.311,2.3112,2.3113,2.3189,0,2.2681,2.2771,2.2776,2.2856,2.2898,2.2887,2.2931,2.2958,2.297,2.3007,2.302,2.3062,2.304,2.3055,2.3087,2.3101,2.3145,2.3096,2.3145,2.3146,2.3133,2.3229,2.324,2.331,2.32,2.3201,2.3203,0,2.2791,2.2826,2.291,2.2939,2.2957,2.2997,2.3034,2.3071,2.3101,2.3107,2.3133,2.313,2.3179,2.3146,2.3213,2.3179,2.3199,2.3209,2.3212,2.3214,2.3176,2.323,2.3334,2.3343,2.3219,2.3217,2.3216,0,2.2854,2.2923,2.2981,2.2998,2.3035,2.3062,2.3078,2.3106,2.3131,2.3164,2.3179,2.3218,2.3239,2.3268,2.3275,2.3251,2.334,2.3308,2.3344,2.3343,2.3361,2.3359,2.3465,2.338,2.3379,2.3379,2.3379,0,2.2945,2.2996,2.3009,2.3044,2.31,2.3105,2.3159,2.3174,2.3198,2.3234,2.3228,2.3262,2.327,2.3305,2.3311,2.3363,2.3373,2.3377,2.3378,2.3376,2.3375,2.3388,2.3382,2.3382,2.3381,2.3381,2.338,0,2.3024,2.3035,2.3097,2.3126,2.3134,2.3174,2.3198,2.323,2.3241,2.3287,2.3298,2.3314,2.3355,2.3364,2.3414,2.3417,2.3477,2.3475,2.3467,2.3465,2.3499,2.3494,2.3615,2.3629,2.3536,2.3537,2.3538,0,2.308,2.3118,2.315,2.3174,2.3191,2.323,2.3254,2.326,2.3285,2.3321,2.3348,2.3388,2.342,2.3485,2.3501,2.3537,2.3533,2.3573,2.3538,2.3534,2.3529,2.3526,2.3528,2.3578,2.3579,2.358,2.3581,0,2.3176,2.3179,2.3214,2.3251,2.3279,2.3309,2.3337,2.3356,2.3365,2.3394,2.3435,2.3459,2.3508,2.3546,2.3582,2.3598,2.359,2.3591,2.3601,2.3598,2.3591,2.3592,2.3481,2.3588,2.3587,2.3587,2.3586,2.3586,2.3243,2.3274,2.3301,2.334,2.3361,2.3386,2.3417,2.3431,2.3465,2.3504,2.3506,2.355,2.3575,2.3623,2.364,2.3673,2.3661,2.3676,2.3679,2.3682,2.3683,2.3588,2.3681,2.368,2.368,2.368,2.368,0,2.3335,2.3351,2.3387,2.3425,2.3454,2.3444,2.3474,2.3499,2.3537,2.3562,2.3593,2.3638,2.3675,2.3692,2.3728,2.3751,2.3748,2.376,2.3757,2.3759,2.3694,2.368,2.3761,2.3761,2.3761,2.3761,2.3761,2.3761,2.3387,2.3439,2.3444,2.3506,2.3522,2.3564,2.3581,2.3603,2.3623,2.3673,2.3703,2.3714,2.3735,2.3772,2.3804,2.3808,2.382,2.3833,2.3835,2.3773,2.3765,2.3757,2.3744,2.3837,2.3837,2.3898,2.3898,2.3899]},{"header":{"parameterUnit":"m.s-1","parameterCategory":1,"la1":30.2991,"la2":30.254,"lo1":-89.0895,"lo2":-89.0444,"dy":0.0017,"dx":0.0017,"nx":28,"ny":28,"refTime":"2023-10-08T09:00:00:Z","depth":0,"parameterNumber":3,"parameterNumberName":"V-component_of_WINDS"},"data":[0,0,0,0,0,0,0,0,0,0,0,0,0,0,0,0,0,0,0,0,0,0,0,0,0,0,0,0,0,0,0,0,0,0,0,0,0,0,0,0,0,0,0,0,0,0,0,0,0,0,0,0,0,0,0,0,0,0,3.5578,3.5578,0,3.5569,3.5569,3.5569,3.5499,3.5498,3.5496,3.5494,3.5484,3.5485,3.5486,0,0,0,0,0,0,0,0,0,0,0,0,0,3.5532,3.5534,3.5578,3.5578,3.5578,3.5569,3.5569,3.5569,3.55,3.5498,3.5495,3.5494,3.5483,3.5485,3.5486,0,0,0,0,0,0,0,0,0,0,0,0,0,3.5541,3.5534,3.5578,3.5543,3.5539,3.5569,3.5569,3.5569,3.55,3.5498,3.5495,3.5493,3.5483,3.5484,3.5486,3.555,0,0,3.5492,3.5493,0,0,0,0,0,0,0,0,3.554,3.5543,3.5548,3.5545,3.5541,3.5533,3.5549,3.5563,3.5501,3.5515,3.5494,3.5491,3.5502,3.5502,3.5506,3.5549,3.5549,3.5493,3.5494,3.5495,3.5495,0,0,0,0,0,0,0,3.554,3.5543,3.5575,3.5548,3.5544,3.5526,3.5524,3.5551,3.5523,3.5513,3.5508,3.5508,3.55,3.5504,3.5505,3.5549,3.5492,3.5494,3.5495,3.5496,3.5639,3.5642,0,0,0,0,0,0,3.5545,3.5543,3.5575,3.5574,3.5535,3.5529,3.5527,3.5538,3.5522,3.5518,3.5511,3.5505,3.5502,3.5503,3.5505,3.5574,3.5495,3.5496,3.5498,3.5636,3.564,3.5642,0,0,0,0,0,0,3.5544,3.5548,3.5575,3.5557,3.5559,3.5532,3.5546,3.5539,3.5544,3.552,3.5515,3.5521,3.55,3.5502,3.5538,3.5573,3.5497,3.5499,3.5633,3.5637,3.5641,3.5717,0,0,0,0,0,0,3.5543,3.5549,3.5573,3.5558,3.556,3.5611,3.5548,3.5541,3.5548,3.554,3.5528,3.5524,3.5498,3.5536,3.554,3.5574,3.5501,3.563,3.5635,3.564,3.5711,3.5723,3.5733,0,0,0,0,0,3.5542,3.5596,3.5575,3.5579,3.5591,3.5613,3.5614,3.5584,3.5551,3.5574,3.5559,3.5524,3.5569,3.554,3.5544,3.558,3.5628,3.5634,3.5639,3.5706,3.5721,3.5733,0,0,0,0,0,0,3.5616,3.5593,3.557,3.5621,3.5619,3.5601,3.563,3.5601,3.5608,3.5601,3.5563,3.5561,3.5602,3.5595,3.5563,3.5638,3.5592,3.5599,3.5641,3.5655,3.5666,3.5665,3.5502,0,0,0,0,0,3.5638,3.5659,3.5637,3.5684,3.5685,3.5658,3.5666,3.5643,3.564,3.5638,3.5625,3.5623,3.5636,3.5645,3.5657,3.571,3.5705,3.5737,3.5748,3.5757,3.5762,3.5787,3.5799,3.5662,3.5662,3.5662,0,0,3.5684,3.5674,3.569,3.5699,3.5695,3.5715,3.5658,3.5682,3.5696,3.5642,3.5674,3.5665,3.5659,3.5704,3.5723,3.5699,3.5799,3.5764,3.5772,3.5772,3.5794,3.5807,3.5819,3.5666,3.5665,3.5664,0,0,3.5778,3.5774,3.5811,3.5808,3.5802,3.5783,3.5792,3.5778,3.5769,3.5802,3.576,3.5776,3.5801,3.5797,3.5798,3.5888,3.5855,3.5893,3.595,3.5974,3.5984,3.5994,3.6022,3.6033,3.59,3.59,3.59,0,3.5836,3.5866,3.5834,3.586,3.5863,3.5815,3.5851,3.5849,3.5848,3.585,3.5824,3.5851,3.5845,3.5886,3.5907,3.5911,3.5918,3.5893,3.5986,3.5995,3.6003,3.603,3.6041,3.5904,3.5904,3.5903,3.5903,0,3.5935,3.5956,3.5986,3.5985,3.5992,3.6023,3.5994,3.6005,3.5981,3.5965,3.5997,3.5987,3.5993,3.6002,3.5979,3.6039,3.6024,3.5993,3.5945,3.6021,3.6045,3.6055,3.591,3.5909,3.5908,3.5906,0,0,3.6075,3.6054,3.6065,3.6062,3.6052,3.6067,3.6095,3.6101,3.6109,3.611,3.613,3.6151,3.612,3.6122,3.6099,3.612,3.6187,3.6085,3.6085,3.6102,3.6248,3.627,3.6282,3.6167,3.6168,3.617,3.6248,0,3.6162,3.6208,3.6179,3.6229,3.6246,3.62,3.6223,3.6218,3.6204,3.6215,3.6198,3.6212,3.6173,3.6173,3.6193,3.6175,3.6216,3.617,3.6182,3.6183,3.6182,3.6296,3.6319,3.6393,3.6257,3.6259,3.626,0,3.627,3.6274,3.6325,3.6308,3.6314,3.6336,3.6337,3.635,3.6342,3.6329,3.633,3.63,3.6324,3.6279,3.631,3.6279,3.6283,3.6275,3.6277,3.6275,3.6224,3.6293,3.6416,3.6426,3.6276,3.6274,3.6273,0,3.6363,3.6381,3.6413,3.6412,3.6394,3.641,3.6403,3.6393,3.6397,3.6399,3.64,3.6405,3.6407,3.641,3.6382,3.6352,3.6415,3.6368,3.6403,3.6403,3.6416,3.6415,3.6538,3.6424,3.6424,3.6424,3.6423,0,3.6461,3.6494,3.6453,3.6473,3.6507,3.6473,3.6507,3.6495,3.6486,3.6501,3.6462,3.6477,3.6439,3.645,3.6428,3.6454,3.6456,3.6445,3.6438,3.6447,3.6448,3.6447,3.644,3.6426,3.6426,3.6425,3.6425,0,3.657,3.6544,3.6575,3.6555,3.655,3.6576,3.6558,3.6574,3.6556,3.6575,3.6578,3.655,3.6559,3.6532,3.6538,3.6523,3.656,3.6547,3.6563,3.6557,3.6592,3.6588,3.6716,3.673,3.661,3.6611,3.6612,0,3.6633,3.6656,3.6638,3.6645,3.6639,3.6652,3.6656,3.6623,3.6628,3.662,3.6636,3.6643,3.6646,3.6663,3.6643,3.6646,3.663,3.6675,3.6631,3.6637,3.6627,3.6625,3.6625,3.6683,3.6685,3.6686,3.6687,0,3.6746,3.6732,3.6739,3.6741,3.6747,3.6747,3.6744,3.6752,3.6716,3.6724,3.6733,3.6736,3.6741,3.6747,3.6745,3.6737,3.6705,3.6702,3.6709,3.6717,3.6723,3.6716,3.6584,3.6698,3.6697,3.6696,3.6696,3.6695,3.6831,3.6849,3.6837,3.6846,3.684,3.6838,3.6851,3.6834,3.6841,3.6842,3.6822,3.6835,3.6824,3.6819,3.6813,3.6822,3.6801,3.6813,3.6815,3.6818,3.6822,3.6725,3.6822,3.6822,3.6821,3.6821,3.6821,0,3.694,3.693,3.6938,3.6934,3.694,3.6911,3.6906,3.6912,3.6924,3.6917,3.692,3.6929,3.6934,3.6914,3.6915,3.6926,3.6911,3.6927,3.6924,3.6922,3.6842,3.6834,3.6939,3.6939,3.6938,3.6938,3.6938,3.6938,3.6997,3.7023,3.7007,3.7029,3.7019,3.703,3.7029,3.7026,3.702,3.7032,3.7035,3.7022,3.7009,3.7009,3.7011,3.7005,3.7006,3.7026,3.7014,3.694,3.6928,3.6917,3.6909,3.7027,3.7027,3.7093,3.7093,3.7094]}]]